�N����,����,�~����,�C��,���x,�C��,����,���ϕ���,�ő�u�ԕ���,�ő厞����,���˗�,�I�_���x,�n�����x,�ő啗���N��,DTYPE
"16/07/25","00:10",0.0,23.8,84.7,1007.6,293.3,0.6,0.9,309.5,0.00,21.1,26.5,"00:08:24",1
"16/07/25","00:20",0.0,23.6,85.5,1007.8,316.6,0.8,1.2,324.8,0.00,21.1,26.4,"00:13:04",1
"16/07/25","00:30",0.0,23.4,86.2,1008.1,300.1,0.7,1.2,312.9,0.00,21.0,26.2,"00:29:44",1
"16/07/25","00:40",0.0,23.4,86.6,1008.1,292.0,0.7,1.1,321.6,0.00,21.1,26.2,"00:30:40",1
"16/07/25","00:50",0.0,23.3,86.6,1007.8,285.5,0.7,1.1,315.3,0.00,21.0,26.2,"00:42:56",1
"16/07/25","01:00",0.0,23.2,86.9,1007.8,283.8,0.7,0.9,281.9,0.00,20.9,26.2,"00:50:24",1
"16/07/25","01:10",0.0,23.1,87.3,1008.1,287.2,0.7,1.3,319.4,0.00,20.9,26.1,"01:06:56",1
"16/07/25","01:20",0.0,23.0,87.5,1007.8,283.8,0.7,0.9,283.9,0.00,20.9,25.9,"01:12:24",1
"16/07/25","01:30",0.0,23.0,87.8,1007.6,319.3,1.0,1.7,323.3,0.00,20.9,25.9,"01:24:08",1
"16/07/25","01:40",0.0,22.9,87.8,1008.1,301.1,0.8,1.6,320.7,0.00,20.8,25.9,"01:32:24",1
"16/07/25","01:50",0.0,22.8,88.1,1007.8,304.3,0.7,1.2,251.0,0.00,20.8,25.8,"01:40:48",1
"16/07/25","02:00",0.0,22.9,88.2,1007.8,286.5,0.8,1.3,324.5,0.00,20.9,25.8,"01:50:40",1
"16/07/25","02:10",0.0,22.9,88.6,1007.8,306.4,1.0,1.4,319.4,0.00,21.0,25.9,"02:06:56",1
"16/07/25","02:20",0.0,23.1,89.0,1007.6,322.0,1.1,1.6,339.1,0.00,21.2,25.8,"02:12:32",1
"16/07/25","02:30",0.0,23.2,88.7,1007.6,302.6,0.8,1.3,332.9,0.00,21.3,25.7,"02:20:56",1
"16/07/25","02:40",0.0,23.3,87.8,1008.3,280.0,0.6,1.1,245.2,0.00,21.2,25.7,"02:34:00",1
"16/07/25","02:50",0.0,23.4,87.1,1008.1,287.1,0.6,1.3,340.8,0.00,21.2,25.7,"02:48:16",1
"16/07/25","03:00",0.0,23.5,86.8,1008.3,285.3,0.6,1.0,325.5,0.00,21.2,25.7,"02:51:20",1
"16/07/25","03:10",0.0,23.5,86.2,1008.1,296.9,0.6,1.2,326.9,0.00,21.1,25.6,"03:04:32",1
"16/07/25","03:20",0.0,23.6,86.6,1008.3,313.8,0.6,0.9,338.5,0.00,21.3,25.7,"03:18:24",1
"16/07/25","03:30",0.0,23.6,87.1,1008.1,303.7,0.7,1.3,322.9,0.00,21.4,25.6,"03:24:24",1
"16/07/25","03:40",0.0,23.6,87.4,1008.3,310.9,0.7,1.1,343.7,0.00,21.4,25.5,"03:32:08",1
"16/07/25","03:50",0.0,23.5,87.7,1008.1,299.0,0.6,0.8,311.5,0.00,21.4,25.6,"03:40:24",1
"16/07/25","04:00",0.0,23.4,87.3,1008.1,290.6,0.6,0.9,315.0,0.00,21.2,25.5,"03:59:12",1
"16/07/25","04:10",0.0,23.4,87.0,1008.3,295.3,0.6,0.9,330.2,0.00,21.2,25.6,"04:01:20",1
"16/07/25","04:20",0.0,23.4,86.9,1008.6,291.0,0.6,0.8,318.2,0.00,21.1,25.5,"04:19:12",1
"16/07/25","04:30",0.0,23.5,86.8,1008.3,298.5,0.6,0.9,329.0,0.00,21.2,25.4,"04:20:24",1
"16/07/25","04:40",0.0,23.5,87.0,1008.6,284.6,0.6,0.8,312.1,0.00,21.3,25.5,"04:31:28",1
"16/07/25","04:50",0.0,23.5,86.8,1008.3,300.5,0.6,0.8,307.3,0.00,21.2,25.6,"04:41:20",1
"16/07/25","05:00",0.0,23.5,86.7,1008.3,299.9,0.5,0.8,281.7,0.00,21.2,25.5,"04:52:56",1
"16/07/25","05:10",0.0,23.5,87.2,1008.6,307.5,0.8,1.2,320.4,0.00,21.3,25.5,"05:09:12",1
"16/07/25","05:20",0.0,23.4,87.4,1008.6,299.5,0.7,1.2,326.4,0.00,21.2,25.3,"05:10:24",1
"16/07/25","05:30",0.0,23.2,87.6,1008.6,305.6,0.7,1.0,311.5,0.00,21.1,25.2,"05:22:40",1
"16/07/25","05:40",0.0,23.3,87.7,1008.6,293.2,0.6,0.8,294.9,0.00,21.2,25.3,"05:38:56",1
"16/07/25","05:50",0.0,23.3,88.0,1008.8,297.9,0.6,0.9,308.8,0.00,21.2,25.3,"05:42:00",1
"16/07/25","06:00",0.0,23.3,88.6,1008.8,293.8,0.6,0.8,302.6,0.00,21.4,25.4,"05:54:16",1
"16/07/25","06:10",0.0,23.4,88.2,1008.8,289.8,0.5,0.8,259.6,0.00,21.4,25.3,"06:05:20",1
"16/07/25","06:20",0.0,23.5,87.7,1008.6,291.5,0.5,0.8,308.5,0.00,21.4,25.4,"06:13:36",1
"16/07/25","06:30",0.0,23.7,87.8,1008.8,297.3,0.3,0.8,321.2,0.01,21.6,25.4,"06:24:40",1
"16/07/25","06:40",0.0,23.9,87.2,1008.3,281.6,0.2,0.6,286.4,0.02,21.7,25.4,"06:37:52",1
"16/07/25","06:50",0.0,24.0,87.1,1008.6,293.9,0.5,0.8,274.3,0.02,21.8,25.3,"06:45:04",1
"16/07/25","07:00",0.0,24.2,86.7,1008.3,281.1,0.5,0.8,302.9,0.03,21.9,25.4,"06:50:24",1
"16/07/25","07:10",0.0,24.4,85.5,1008.8,289.5,0.6,0.9,272.3,0.03,21.9,25.6,"07:04:00",1
"16/07/25","07:20",0.0,24.6,84.6,1008.6,325.3,0.7,1.1,330.5,0.03,21.9,25.6,"07:12:56",1
"16/07/25","07:30",0.0,24.9,84.8,1008.6,324.5,0.8,1.6,326.4,0.03,22.2,25.4,"07:21:36",1
"16/07/25","07:40",0.0,25.2,83.9,1008.6,318.1,0.7,1.3,341.9,0.04,22.3,25.4,"07:32:40",1
"16/07/25","07:50",0.0,25.3,81.0,1008.8,290.3,0.5,0.9,309.6,0.05,21.8,25.4,"07:47:52",1
"16/07/25","08:00",0.0,25.6,81.5,1008.6,289.1,0.3,0.9,238.6,0.05,22.2,25.4,"07:52:08",1
"16/07/25","08:10",0.0,25.7,80.9,1008.6,289.7,0.1,0.5,271.7,0.04,22.2,25.7,"08:06:32",1
"16/07/25","08:20",0.0,25.9,79.9,1008.3,295.5,0.2,0.8,353.8,0.04,22.2,25.7,"08:12:48",1
"16/07/25","08:30",0.0,25.9,77.9,1008.1,253.6,0.2,1.0,198.9,0.05,21.8,25.7,"08:21:20",1
"16/07/25","08:40",0.0,26.2,79.3,1007.8,231.6,0.1,0.5,276.3,0.05,22.4,25.8,"08:30:16",1
"16/07/25","08:50",0.0,26.2,78.8,1008.3,335.7,0.7,1.4,349.9,0.06,22.3,25.6,"08:42:48",1
"16/07/25","09:00",0.0,26.2,78.1,1007.8,329.8,0.7,1.4,343.6,0.06,22.1,25.6,"08:58:48",1
"16/07/25","09:10",0.0,26.2,77.1,1007.6,325.3,0.5,1.4,346.3,0.05,21.9,26.0,"09:03:20",1
"16/07/25","09:20",0.0,26.1,77.0,1008.1,356.1,0.6,1.3,352.1,0.04,21.8,25.9,"09:18:40",1
"16/07/25","09:30",0.0,26.2,77.3,1008.1,347.8,0.6,1.2,339.9,0.05,22.0,25.9,"09:20:08",1
"16/07/25","09:40",0.0,26.4,76.8,1007.6,345.6,0.7,1.6,345.6,0.07,22.0,26.0,"09:39:52",1
"16/07/25","09:50",0.0,26.5,76.8,1007.6,347.0,0.8,1.7,343.0,0.10,22.1,26.1,"09:46:00",1
"16/07/25","10:00",0.0,27.0,75.0,1007.4,357.4,0.8,1.8,351.0,0.14,22.2,26.2,"09:56:16",1
"16/07/25","10:10",0.0,27.2,72.3,1007.6,337.0,0.3,1.2,5.4,0.16,21.8,26.2,"10:06:40",1
"16/07/25","10:20",0.0,27.3,71.3,1007.6,61.4,0.7,1.9,357.7,0.18,21.7,26.3,"10:12:48",1
"16/07/25","10:30",0.0,27.6,70.5,1006.9,55.9,0.5,1.7,350.9,0.17,21.8,26.3,"10:20:02",1
"16/07/25","10:40",0.0,27.7,70.0,1006.9,358.1,1.0,2.0,344.0,0.18,21.8,26.6,"10:33:20",1
"16/07/25","10:50",0.0,27.6,71.3,1006.7,58.9,0.6,1.4,56.4,0.13,22.0,26.7,"10:47:52",1
"16/07/25","11:00",0.0,27.8,70.8,1007.1,157.8,0.7,1.4,129.4,0.15,22.1,26.6,"10:50:08",1
"16/07/25","11:10",0.0,28.2,68.0,1007.1,133.0,0.5,1.9,121.7,0.18,21.8,27.0,"11:00:32",1
"16/07/25","11:20",0.0,28.5,69.4,1007.1,125.7,0.6,1.3,231.0,0.24,22.4,26.9,"11:15:04",1
"16/07/25","11:30",0.0,28.6,66.4,1007.6,100.2,0.6,1.6,75.9,0.20,21.8,26.9,"11:26:16",1
"16/07/25","11:40",0.0,28.0,67.4,1007.6,45.3,0.7,1.8,74.0,0.15,21.4,27.2,"11:34:24",1
"16/07/25","11:50",0.0,28.6,67.6,1007.1,314.8,0.2,1.6,337.0,0.18,22.1,27.1,"11:44:40",1
"16/07/25","12:00",0.0,28.8,67.3,1007.4,194.9,0.6,1.9,219.6,0.20,22.2,27.2,"11:53:20",1
"16/07/25","12:10",0.0,28.9,65.2,1007.4,332.1,0.5,1.8,223.5,0.19,21.8,27.4,"12:01:04",1
"16/07/25","12:20",0.0,28.9,67.2,1007.6,333.5,0.3,1.7,351.6,0.18,22.2,27.4,"12:14:16",1
"16/07/25","12:30",0.0,28.9,65.5,1007.1,12.6,0.6,2.0,350.1,0.19,21.8,27.5,"12:29:20",1
"16/07/25","12:40",0.0,29.1,65.0,1007.1,12.0,0.7,2.4,353.6,0.22,21.9,27.7,"12:39:12",1
"16/07/25","12:50",0.0,29.9,63.5,1007.1,18.3,0.7,1.9,2.6,0.29,22.3,27.8,"12:40:40",1
"16/07/25","13:00",0.0,30.8,59.5,1007.6,25.5,0.8,1.9,358.7,0.46,22.0,27.8,"12:57:04",1
"16/07/25","13:10",0.0,30.2,63.2,1007.6,63.3,0.8,1.8,117.2,0.27,22.5,28.1,"13:07:52",1
"16/07/25","13:20",0.0,29.5,63.2,1007.6,143.4,1.3,4.0,206.6,0.25,21.8,28.2,"13:17:44",1
"16/07/25","13:30",0.0,30.4,65.4,1007.4,131.4,0.7,2.0,196.2,0.25,23.2,28.5,"13:22:08",1
"16/07/25","13:40",0.0,30.7,61.4,1007.6,29.2,0.6,1.9,45.3,0.27,22.5,28.4,"13:34:48",1
"16/07/25","13:50",0.0,30.0,64.8,1007.1,137.4,1.1,2.7,222.1,0.20,22.7,28.7,"13:46:40",1
"16/07/25","14:00",0.0,29.6,63.5,1007.1,222.5,0.8,3.1,206.3,0.19,22.0,28.6,"13:53:36",1
"16/07/25","14:10",0.0,30.0,64.9,1006.7,227.0,0.3,2.0,232.8,0.20,22.7,28.7,"14:04:24",1
"16/07/25","14:20",0.0,30.3,65.3,1006.9,261.2,0.2,1.8,212.8,0.22,23.1,28.7,"14:12:56",1
"16/07/25","14:30",0.0,30.0,65.0,1007.1,195.9,0.5,1.8,186.7,0.16,22.7,29.0,"14:20:48",1
"16/07/25","14:40",0.0,29.4,66.2,1006.9,272.4,0.6,1.8,6.7,0.12,22.5,28.8,"14:37:20",1
"16/07/25","14:50",0.0,29.4,68.2,1006.7,355.3,0.2,1.7,25.8,0.10,23.0,28.9,"14:41:04",1
"16/07/25","15:00",0.0,29.5,66.6,1006.2,88.4,0.1,0.8,148.8,0.09,22.7,28.6,"14:55:52",1
"16/07/25","15:10",0.0,29.4,69.3,1006.2,265.1,0.5,1.7,215.8,0.11,23.2,28.7,"15:09:12",1
"16/07/25","15:20",0.0,29.4,65.6,1006.0,207.0,0.3,1.8,221.3,0.12,22.3,28.8,"15:11:36",1
"16/07/25","15:30",0.0,29.5,65.1,1006.0,264.7,0.2,1.6,215.0,0.13,22.3,28.7,"15:21:12",1
"16/07/25","15:40",0.0,29.3,65.5,1006.2,222.5,1.1,2.7,221.3,0.12,22.2,28.8,"15:33:36",1
"16/07/25","15:50",0.0,29.4,65.6,1005.7,230.4,0.3,1.3,176.0,0.09,22.3,28.6,"15:45:04",1
"16/07/25","16:00",0.0,29.8,66.6,1005.5,230.5,0.2,0.9,212.2,0.09,23.0,28.8,"15:54:08",1
"16/07/25","16:10",0.0,29.2,68.4,1005.2,216.8,0.2,1.9,227.4,0.09,22.8,28.5,"16:04:48",1
"16/07/25","16:20",0.0,29.4,67.2,1005.2,232.7,0.2,0.9,263.0,0.08,22.7,28.7,"16:17:12",1
"16/07/25","16:30",0.0,29.3,67.4,1005.5,197.2,0.1,0.6,10.0,0.05,22.7,28.6,"16:25:44",1
"16/07/25","16:40",0.0,29.0,67.8,1005.0,202.1,0.1,0.8,216.5,0.03,22.5,28.5,"16:38:32",1
"16/07/25","16:50",0.0,28.6,69.3,1005.0,335.8,0.2,0.9,0.8,0.02,22.5,28.4,"16:45:20",1
"16/07/25","17:00",0.0,28.4,69.2,1004.5,319.2,0.2,1.2,334.4,0.02,22.3,28.4,"16:51:36",1
"16/07/25","17:10",0.0,28.2,70.6,1004.5,317.3,0.3,1.3,306.6,0.02,22.4,28.4,"17:03:52",1
"16/07/25","17:20",0.0,28.1,71.4,1004.5,334.8,0.2,1.0,349.5,0.02,22.5,28.3,"17:16:40",1
"16/07/25","17:30",0.0,28.1,71.8,1004.8,228.0,0.2,0.8,334.4,0.03,22.6,28.2,"17:23:20",1
"16/07/25","17:40",0.0,28.1,71.8,1005.2,314.2,0.5,2.1,343.6,0.02,22.6,28.2,"17:35:28",1
"16/07/25","17:50",0.0,27.9,71.6,1005.7,258.9,0.5,1.3,212.9,0.02,22.3,28.1,"17:49:12",1
"16/07/25","18:00",0.0,27.6,72.3,1005.5,266.8,0.5,1.2,318.9,0.00,22.2,28.0,"17:57:36",1
"16/07/25","18:10",0.0,27.5,73.0,1005.5,297.3,0.3,1.3,353.5,0.00,22.3,28.1,"18:00:32",1
"16/07/25","18:20",0.0,27.4,72.9,1005.5,276.5,0.6,1.7,242.6,0.00,22.1,28.0,"18:16:32",1
"16/07/25","18:30",0.0,27.2,73.5,1005.7,294.7,0.5,1.0,337.0,0.00,22.1,27.9,"18:23:52",1
"16/07/25","18:40",0.0,27.1,74.3,1005.7,249.8,0.7,2.1,204.5,0.00,22.2,27.7,"18:36:00",1
"16/07/25","18:50",0.0,27.0,73.3,1005.7,223.9,1.7,2.7,226.1,0.00,21.9,27.7,"18:48:00",1
"16/07/25","19:00",0.0,26.8,72.6,1006.0,249.4,1.1,2.4,202.9,0.00,21.5,27.6,"18:50:16",1
"16/07/25","19:10",0.0,26.6,70.0,1006.2,260.0,1.1,3.3,231.2,0.00,20.7,27.4,"19:02:08",1
"16/07/25","19:20",0.0,26.5,69.8,1006.2,248.9,1.3,2.7,231.9,0.00,20.6,27.2,"19:16:16",1
"16/07/25","19:30",0.0,26.4,70.5,1006.2,285.7,0.6,2.1,235.6,0.00,20.6,27.6,"19:25:12",1
"16/07/25","19:40",0.0,26.3,73.9,1006.0,347.0,0.7,1.4,3.1,0.00,21.3,27.3,"19:34:16",1
"16/07/25","19:50",0.0,26.0,75.3,1006.4,269.0,0.1,0.6,1.2,0.00,21.3,27.2,"19:40:24",1
"16/07/25","20:00",0.0,25.8,74.3,1006.4,302.0,0.3,0.6,314.1,0.00,20.9,27.1,"19:57:44",1
"16/07/25","20:10",0.0,25.9,73.8,1006.0,293.9,0.7,2.5,234.8,0.00,20.9,27.1,"20:08:08",1
"16/07/25","20:20",0.0,26.0,73.9,1006.4,279.3,0.7,1.9,237.4,0.00,21.0,27.1,"20:18:00",1
"16/07/25","20:30",0.0,26.0,74.1,1006.7,293.2,0.8,1.8,237.8,0.00,21.1,26.8,"20:23:12",1
"16/07/25","20:40",0.0,25.8,76.3,1006.4,336.7,0.8,1.7,340.2,0.00,21.4,27.0,"20:32:40",1
"16/07/25","20:50",0.0,25.4,77.1,1006.4,328.1,0.6,1.1,326.9,0.00,21.1,26.7,"20:40:32",1
"16/07/25","21:00",0.0,25.2,78.2,1006.7,302.5,0.3,0.9,327.0,0.00,21.2,26.7,"20:52:00",1
"16/07/25","21:10",0.0,25.2,79.9,1006.7,320.7,0.5,1.0,337.5,0.00,21.5,26.6,"21:09:04",1
"16/07/25","21:20",0.0,24.9,80.2,1006.9,311.2,0.6,1.1,343.9,0.00,21.3,26.6,"21:12:48",1
"16/07/25","21:30",0.0,24.9,80.9,1006.4,340.4,0.5,0.8,330.7,0.00,21.4,26.6,"21:24:32",1
"16/07/25","21:40",0.0,24.8,80.4,1006.9,346.5,0.8,1.4,341.7,0.00,21.2,26.7,"21:37:44",1
"16/07/25","21:50",0.0,24.8,81.5,1006.4,335.7,1.1,1.4,345.4,0.00,21.5,26.3,"21:42:56",1
"16/07/25","22:00",0.0,24.7,81.1,1006.9,284.2,0.5,1.6,338.0,0.00,21.3,26.6,"21:51:12",1
"16/07/25","22:10",0.0,24.8,81.2,1006.7,308.2,0.3,0.9,335.6,0.00,21.4,26.5,"22:03:12",1
"16/07/25","22:20",0.0,24.8,81.6,1006.7,318.6,0.1,0.5,329.6,0.00,21.5,26.2,"22:15:20",1
"16/07/25","22:30",0.0,24.7,81.9,1006.2,295.6,0.3,1.2,345.5,0.00,21.4,26.3,"22:22:24",1
"16/07/25","22:40",0.0,24.8,82.2,1006.4,323.0,0.6,1.1,2.4,0.00,21.6,26.3,"22:38:24",1
"16/07/25","22:50",0.0,24.9,83.0,1006.2,16.5,0.2,1.0,343.9,0.00,21.9,26.2,"22:42:48",1
"16/07/25","23:00",0.0,24.8,83.4,1006.4,72.4,0.2,0.6,63.7,0.00,21.8,26.1,"22:54:00",1
"16/07/25","23:10",0.0,24.9,83.5,1006.4,339.9,0.7,1.6,339.6,0.00,22.0,26.1,"23:03:20",1
"16/07/25","23:20",0.0,24.9,83.8,1006.0,335.6,0.7,1.0,337.2,0.00,22.0,26.1,"23:10:56",1
"16/07/25","23:30",0.0,24.9,84.1,1006.2,315.1,0.6,1.1,337.5,0.00,22.1,26.1,"23:28:24",1
"16/07/25","23:40",0.0,24.8,84.5,1006.2,329.6,0.7,1.3,338.4,0.00,22.0,26.0,"23:39:44",1
"16/07/25","23:50",0.0,24.8,85.4,1006.0,312.7,0.7,1.1,333.5,0.00,22.2,26.2,"23:40:16",1
"16/07/25","24:00",0.0,24.6,85.2,1006.2,300.3,0.5,0.9,310.2,0.00,22.0,25.8,"23:52:40",1
